Location: Unspecified
(40.9447°N, 78.9903°W)
Time: 06:42:15
(UTC-04:00)

ISS - Visible Passes

Search period start: 03 October 2022 00:00
Search period end: 13 October 2022 00:00
Orbit: 415 x 420 km, 51.6° (Epoch: 03 October)

Date Brightness Start Highest point End Pass type
(mag) Time Alt. Az. Time Alt. Az. Time Alt. Az.
03 Oct -2.3 20:45:50 10° WNW 20:48:52 31° SW 20:49:03 31° SW visible
04 Oct -3.2 19:57:32 10° WNW 20:00:50 55° SW 20:03:17 16° SE visible
05 Oct -0.7 20:48:04 10° WSW 20:49:01 11° SW 20:49:58 10° SW visible
06 Oct -1.2 19:58:35 10° W 20:01:03 19° SW 20:03:30 10° S visible
09 Oct -0.5 19:11:43 10° WSW 19:12:57 12° SW 19:14:11 10° SSW visible
